Find Starlink 4187

NORAD ID: 52850 Int'l Des: 2022-062 Owner: SPXS Country: US Constellation: starlink operational
LEOCIRCULAR

当前视图

正在加载3D地球...

About Starlink 4187

Starlink 4187 (NORAD 52850) is a starlink constellation satellite (v1.5) launched Jun 17, 2022 by SPXS of US. It operates in LEO, CIRCULAR orbit with a mass of 297.00 kg.

即将过境

Passes for default location (London). Set your location on the main map for personalized predictions.

高度历史

Loading altitude history...

两行轨道根数

1 52850U 22062W 26262.52915670 -.00000229 00000-0 43871-5 0 9997
2 52850 53.1596 233.4072 0001432 101.7955 258.3207 15.31701866235195
Epoch: Sep 19, 2026 • Age: 29 hours

当前状态

高度 486.0 km
远地点 / 近地点 N/A
速度 7.62 km/s
星下点 -43.42°S, 175.97°W
发射日期 Jun 17, 2022
运行时间 4.2 years
类型 internet

技术详情

分类 Payload
质量 297.00 kg
干质量 275.00 kg
长度 0.20 m
跨度 9.00 m
形状 ? Box + pan
制造商 SPXS
平台类型 Starlink
阶段状态 In Orbit
所有者/国家 SPXS/US

Most Searched